Other Surface Observations
Issued by NWS

Home | Current Version | Previous Version | Text Only | Print | Product List | Glossary On
Versions: 1 2 3 4 5 6 7 8 9 10 11 12 13 14 15 16 17 18 19 20 21 22 23 24 25 26 27 28 29 30 31 32 33 34 35 36 37 38 39 40 41 42 43 44 45 46 47 48 49 50
000
SXUS52 KTAE 052118
OSOTAE
OSOTAE
North Florida/South Alabama/Southwest Georgia Weather Roundup
National Weather Service Tallahassee Florida
500 PM EDT TUE MAY 05 2015

Note: "fair" indicates few or no clouds below 12,000 feet with no
significant weather and/or obstructions to visibility.

!FLZ017-115-028-034-025-052200
...North Florida...

CITY           SKY/WX    TMP DP  RH WIND       PRES   REMARKS
TALLAHASSEE    PTSUNNY   84  57  39 E10       30.14F
APALACHICOLA   PTSUNNY   82  63  52 E10G18    30.12F
PERRY          CLOUDY    79  61  54 E9G17     30.15F
CROSS CITY       N/A     80  64  58 NE12G21   30.12F
JACKSONVILLE   PTSUNNY   77  62  59 NE17      30.18F
$$

!FLZ112-006-005-002-011-052200
...Florida Panhandle...

CITY           SKY/WX    TMP DP  RH WIND       PRES   REMARKS
MARIANNA       MOSUNNY   83  54  36 E10       30.14F
BONIFAY        NOT AVBL
PANAMA CITY NW FAIR      82  56  40 SE9       30.11F
TYNDALL AFB    PTSUNNY   82  61  48 E10       30.12F
TYND DRONE APT MOCLDY    81  62  51 E12       30.11F
DE FUNIAK SPR  MOCLDY    80  53  38 E8        30.15F
EGLIN AFB      MOSUNNY   79  61  53 S10       30.12F
DESTIN         SUNNY     78  61  55 VRB7      30.13F
HURLBURT       SUNNY     78  58  50 S6        30.12F
CRESTVIEW      PTSUNNY   84  55  36 E12G17    30.14F
PENSACOLA      SUNNY     78  59  51 S12       30.13F
$$

!ALZ063-066-052200
...South Alabama...

CITY           SKY/WX    TMP DP  RH WIND       PRES   REMARKS
DOTHAN         MOSUNNY   82  49  31 E10G18    30.19F
OZARK CAIRNS   SUNNY     82  51  33 E12G18    30.15F
FT RUCKER HELI SUNNY     83  50  31 VRB7      30.14F
RUCKER HELI 3  NOT AVBL
RUCKER HELI 2  FAIR      81  48  31 E12       30.15F
FLORALA APT    MOSUNNY   81  53  37 E7        30.16F
ANDALUSIA      MOSUNNY   87  53  31 E12       30.15F
TROY           MOSUNNY   80  53  39 E10       30.17F
EUFALA         FAIR      84  51  31 E9        30.16F
MOBILE         MOSUNNY   80  59  48 SE12      30.14F
$$

!GAZ120>161-052200
...Southwest and South Central Georgia...

CITY           SKY/WX    TMP DP  RH WIND       PRES   REMARKS
THOMASVILLE    PTSUNNY   81  59  47 E12       30.17F
BAINBRIDGE     SUNNY     86  55  35 NE6       30.16F
MOODY AFB      PTSUNNY   79  58  48 E9        30.15F
VALDOSTA       CLOUDY    80  60  50 E9        30.16F
MOULTRIE       CLOUDY    81  55  41 NE3       30.17F
BLAKELY        MOSUNNY   82  54  36 E7        30.17F
ALBANY         MOSUNNY   82  51  34 E8        30.19F
TIFTON         FAIR      79  52  39 E6        30.17F
FITZGERALD     FAIR      82  51  33 E5        30.20F
CORDELE        FAIR      81  50  33 E8        30.20F
AMERICUS       FAIR      79  48  34 E12G18    30.21F
HOMERVILLE     PTSUNNY   81  61  50 E8G17     30.18S
$$

!GMZ750-755-770-775-052200
...Coastal and Buoy Obs...

STATION/POSITION TIME  TEMP    WIND        PRES    VSBY  WAVE
                       AIR SEA DIR/SP/G                  HT/PER
                 (UTC) (F)     (DEG/KT/KT) (MB)    (MI)  (FT/S)
KEATON BEACH     2100   78      60/ 11/ 14 1020.2F
CEDAR KEY        2100   76      20/  5/  7 1019.7F
C TOWER          2100   74      70/ 13/ 13 1020.1F
APALACHICOLA BUO 2050   75 75   70/ 12/ 14 1019.4F         4/ 5
PANAMA CITY BUOY 2050   73 75   80/ 16/ 17 1019.7F         5/ 6
MOBILE BUOY      2050   74 76  100/ 16/ 17 1020.2F         6/ 7
ORANGE BCH AL BU 2050   73 74  120/ 12/ 14 1020.0F         5/ 7
$$



USA.gov is the U.S. government's official web portal to all federal, state and local government web resources and services.